Location: Newark
(25.4297°S, 49.2719°W)
Time: 01:52:35
(UTC+00:00)

Vanguard 1 Rocket - Pass Details

Date: 24 November 2019
Orbit: 650 x 4226 km, 34.3° (Epoch: 09 December)

Event Time Altitude Azimuth Distance (km) Brightness Sun altitude
Rises 20:04:18 0° 254° (WSW) 7,860 13.7 21.6°
Reaches altitude 10° 20:09:21 10° 252° (WSW) 7,102 14.2 20.5°
Maximum altitude 20:36:04 74° 165° (SSE) 4,139 11.0 14.7°
Drops below altitude 10° 20:56:35 10° 80° (E) 5,745 10.9 10.2°
Sets 21:00:07 0° 78° (ENE) 6,385 11.0 9.5°
